Theta_e
348 350 353 354 353 355 356 358 353 349 348 338 342 346 346 352 352 353 352 352 351 351 351 351 352 351 351 350 351 352 351 352 351 348 347 352 352 349 351 351 351 350 350 349 348 349 349 349 349 349 348 348 348 347 346 345 344 344 343 344 346 346 345 343 341 341 341 338 336 340 342 341 340 340 341 339 336 334 333 332 332 332 333 333 331 330 327 327 327 329 330 330 331 332 332 332 332
353 353 354 354 354 356 357 357 349 341 339 336 343 347 348 353 353 353 353 351 351 350 350 350 350 350 350 350 351 351 351 353 352 351 350 351 352 351 351 351 350 349 350 350 349 349 349 349 349 349 349 349 349 347 346 345 344 344 343 342 343 343 343 342 341 340 341 341 339 341 343 341 340 340 339 337 336 333 333 332 333 332 332 331 329 327 326 328 329 331 330 331 332 332 332 331 332
354 355 356 356 356 356 356 356 346 335 333 335 343 349 351 352 351 353 352 350 351 351 351 350 350 351 350 349 350 350 350 353 352 351 351 350 352 351 351 350 349 348 350 350 350 349 349 348 347 348 348 348 347 346 346 345 344 345 344 342 342 341 340 340 340 339 339 340 340 343 345 342 339 339 338 335 334 332 330 330 330 330 329 328 327 327 329 331 332 331 330 331 332 332 332 331 331
354 355 356 357 358 357 357 352 345 336 333 335 340 350 352 351 351 351 352 351 351 351 350 351 351 352 353 351 351 351 352 354 352 350 350 351 351 350 350 351 349 347 349 350 349 349 349 346 344 346 347 347 346 345 345 345 344 344 343 343 342 340 338 338 338 338 338 337 340 344 344 342 338 339 338 334 331 329 328 328 328 327 327 327 328 331 332 333 333 331 331 332 333 332 331 331 331
355 355 353 357 359 354 355 348 346 340 337 339 341 350 352 350 350 349 352 351 350 351 351 352 351 352 353 353 353 352 352 352 352 350 350 351 351 350 350 349 348 346 347 349 348 349 349 345 343 344 345 346 346 345 345 345 345 344 344 344 343 341 339 337 338 340 340 336 339 344 342 341 339 339 338 331 328 327 328 330 329 329 330 331 333 334 334 333 332 330 331 333 332 332 331 331 332
356 356 352 356 358 353 354 344 341 342 346 349 345 350 351 349 350 350 352 351 351 351 351 353 351 351 353 353 353 353 352 352 351 351 351 351 351 350 349 348 348 346 346 347 347 350 349 344 344 343 343 344 345 345 345 345 345 344 344 345 344 343 342 339 338 340 341 337 338 344 341 340 342 339 337 330 328 329 332 335 333 333 334 335 335 334 334 332 331 331 332 333 332 332 331 331 331
356 357 356 357 356 354 353 341 340 343 350 354 349 350 350 350 351 350 351 350 351 351 351 352 351 352 352 353 352 353 353 353 352 350 350 351 351 350 349 349 349 347 346 346 346 348 348 345 344 343 341 341 343 344 345 345 345 345 345 345 345 343 343 342 339 340 341 338 338 343 340 339 344 342 338 334 332 335 336 336 336 336 336 335 335 333 332 331 331 331 332 332 332 332 331 331 332
355 357 357 355 354 353 348 343 346 348 348 352 351 352 350 352 352 349 348 348 349 350 351 350 351 352 351 353 354 353 353 353 352 350 350 352 352 350 350 351 349 346 346 345 346 347 347 345 344 343 341 341 341 342 344 345 344 345 345 345 345 344 343 343 342 341 340 339 340 342 338 340 345 345 343 340 338 339 338 337 337 336 336 336 337 336 334 332 331 332 333 333 332 332 331 331 331
356 357 356 354 351 348 346 344 347 351 350 351 351 352 352 351 351 349 347 348 349 350 351 350 350 351 352 354 355 354 354 353 351 351 351 352 352 352 352 351 347 345 345 345 345 346 346 344 343 342 341 342 342 342 341 343 343 344 345 345 345 345 343 344 343 342 342 341 341 341 339 342 347 347 345 342 340 340 339 338 337 337 338 339 340 340 338 335 333 333 334 334 333 332 331 331 331
359 356 355 353 349 343 341 343 347 351 352 352 352 352 352 352 352 350 349 348 349 350 351 350 350 351 352 354 354 354 354 352 351 351 352 352 352 353 352 349 348 346 345 344 344 344 344 343 340 340 341 341 342 342 342 342 343 343 344 345 345 345 345 344 344 343 343 342 342 342 342 345 347 347 346 343 342 342 341 340 340 339 340 341 341 341 340 338 334 334 335 334 333 332 331 331 331
359 355 355 352 345 338 337 342 347 351 351 351 352 353 352 352 352 350 350 349 349 351 350 349 349 350 351 353 353 354 354 352 351 352 352 351 351 353 351 350 350 347 345 344 343 343 343 342 341 341 341 341 341 340 342 342 342 343 343 344 345 345 345 344 344 343 343 343 344 343 342 345 347 347 346 345 344 345 343 343 342 341 342 342 341 340 340 339 337 335 336 335 333 332 331 331 330
356 352 355 350 343 341 342 345 347 351 352 351 352 353 352 351 351 349 350 349 349 349 349 350 349 350 350 352 354 354 354 352 351 351 351 351 351 352 353 352 350 347 345 343 344 344 341 341 341 341 341 342 341 339 341 342 342 344 343 344 345 345 344 343 344 343 343 343 344 343 343 346 348 347 347 346 346 345 344 343 343 343 342 342 340 340 339 338 337 336 336 335 333 331 331 330 329
356 353 353 348 347 348 347 348 350 351 352 351 352 353 352 352 352 350 349 349 349 349 348 350 349 349 350 352 354 354 354 352 350 350 351 350 350 351 350 350 347 345 344 342 345 344 341 341 341 340 340 340 340 340 339 340 342 343 343 344 344 344 343 344 344 344 344 344 343 342 343 347 347 346 346 345 345 343 343 343 342 342 342 341 340 341 339 337 336 336 336 334 332 331 331 330 328
357 355 352 349 349 351 349 348 350 349 348 351 353 353 352 352 351 350 350 349 349 349 349 349 349 349 350 352 354 354 354 353 350 349 349 349 350 349 348 348 347 345 343 343 345 344 343 343 342 341 340 339 340 341 340 341 342 343 344 344 344 344 343 344 344 344 344 343 342 342 345 347 346 345 345 343 343 342 342 342 341 341 341 341 340 341 339 337 336 336 336 335 332 331 331 328 328
357 356 353 350 349 349 349 349 348 346 347 351 353 353 353 351 350 350 350 349 350 351 350 349 349 349 348 350 353 353 354 352 351 349 349 349 349 349 349 348 347 346 345 344 344 344 345 345 345 344 343 341 340 340 341 342 342 343 345 345 345 344 342 343 344 344 344 342 342 344 348 348 345 345 343 342 342 343 342 341 340 340 341 341 340 341 339 338 337 336 335 334 332 331 329 327 329
357 356 353 349 347 346 347 350 348 345 348 352 352 352 352 351 349 350 352 349 351 350 350 350 349 349 348 348 352 353 354 353 350 348 349 348 347 348 349 349 347 346 345 344 344 344 345 345 346 346 346 345 344 344 344 343 343 343 345 346 345 344 343 343 343 344 344 343 345 348 349 347 346 344 343 343 343 343 342 341 340 339 340 341 340 340 338 337 337 336 335 333 332 330 328 327 330
356 356 352 345 344 346 348 350 348 345 348 351 352 353 351 350 351 352 351 350 352 351 351 350 349 349 349 350 352 352 353 352 350 348 348 348 347 348 350 351 350 345 343 343 344 344 344 343 345 346 347 347 346 347 346 345 344 342 344 345 344 344 344 344 344 343 343 344 346 349 348 347 347 346 344 345 345 344 342 341 341 339 340 341 340 339 337 337 336 335 335 333 332 330 327 327 331
355 354 349 344 344 350 352 351 350 350 350 351 352 353 352 350 351 351 350 350 351 351 351 351 350 350 350 351 352 352 353 352 351 349 349 350 349 351 351 351 351 347 344 343 341 342 343 342 343 345 347 347 346 346 346 346 345 344 343 344 344 344 344 343 343 342 342 345 346 348 346 346 351 349 345 346 346 345 343 341 340 340 340 341 340 338 336 337 336 335 334 333 331 328 327 329 332
355 352 348 347 349 352 355 354 353 353 351 352 351 352 352 350 351 350 350 350 351 350 351 352 351 352 351 351 352 352 352 352 352 351 350 351 351 352 352 350 350 348 346 346 344 343 344 343 343 344 346 346 346 345 345 345 345 344 343 344 343 343 343 342 342 342 344 346 346 346 345 348 351 349 345 346 346 345 345 342 342 342 341 340 339 338 336 337 336 335 334 333 330 327 328 331 337
354 351 349 350 351 352 356 355 354 353 353 354 351 350 351 351 351 349 350 350 349 349 350 353 353 353 353 352 352 352 352 352 351 351 351 351 351 351 351 350 349 347 346 348 349 347 344 343 343 344 345 344 344 344 343 343 343 343 344 344 344 343 343 342 341 343 346 346 344 344 346 348 348 347 345 345 345 346 347 344 344 343 342 342 340 338 336 336 337 335 333 332 328 327 330 336 341
353 352 350 351 351 352 355 355 354 353 354 354 352 350 349 350 351 350 350 349 347 347 348 350 353 353 353 352 351 351 352 352 351 351 351 350 350 351 351 349 348 347 346 347 347 348 346 345 345 345 344 343 343 344 344 342 343 344 345 345 345 345 344 343 342 343 345 344 344 347 349 346 346 348 345 345 348 349 350 346 345 345 345 346 342 340 341 338 338 336 333 331 329 331 335 340 341
352 352 351 352 352 353 354 355 355 354 354 354 353 351 350 351 351 350 350 350 347 347 347 349 351 352 352 351 351 352 351 351 351 351 350 350 350 350 350 349 349 349 348 346 344 346 346 346 346 345 345 343 342 344 344 344 344 345 346 344 344 346 346 345 345 345 346 345 347 351 349 347 348 348 345 347 350 351 351 348 345 345 347 348 345 344 343 337 338 339 335 331 332 337 340 339 339
351 352 350 353 354 355 354 353 354 354 354 354 354 353 352 350 351 349 350 350 348 348 348 349 351 352 352 351 351 352 351 351 350 350 350 350 350 350 350 350 350 349 349 348 347 346 346 347 347 347 347 345 344 344 343 343 343 343 345 344 344 348 348 347 349 349 349 349 350 351 349 348 349 348 345 346 348 350 351 349 347 345 346 349 348 346 343 337 338 339 334 329 331 339 342 340 342
352 351 352 354 356 355 353 352 353 353 354 355 354 354 353 352 351 350 350 351 349 348 349 350 351 352 352 351 351 351 351 351 350 350 350 349 350 349 349 349 349 349 349 348 349 349 348 348 347 348 348 346 346 347 346 345 344 346 348 348 348 349 350 349 351 352 350 348 349 347 347 348 348 346 346 346 347 348 349 349 347 346 348 350 347 345 345 341 340 339 331 328 332 340 344 344 346
350 351 352 354 355 355 352 351 353 354 355 355 355 355 354 354 353 352 350 349 349 349 350 351 351 352 352 351 351 352 350 351 350 349 350 349 350 349 350 350 349 348 348 349 350 349 348 347 347 348 347 344 345 346 349 350 349 350 351 351 351 349 351 353 352 351 348 346 346 345 346 348 347 347 347 347 347 346 346 346 347 348 349 348 345 345 345 341 342 340 332 334 339 342 346 346 346
346 350 352 353 354 355 354 354 355 355 355 356 355 355 354 353 353 352 351 349 349 350 350 352 352 352 353 352 351 352 352 351 351 350 350 350 350 350 350 350 350 349 348 349 349 349 348 345 345 346 345 344 344 344 347 350 350 350 352 352 351 348 350 351 349 348 346 346 346 345 346 347 347 348 347 347 346 345 344 345 347 348 347 346 346 347 344 342 342 341 336 341 345 346 349 347 346
346 350 352 353 354 355 354 354 355 353 354 355 355 354 353 353 352 351 351 349 350 351 350 352 352 353 352 352 352 352 352 351 351 350 350 351 351 351 351 350 350 350 348 348 348 350 348 345 345 345 343 343 343 343 345 346 346 348 350 350 348 347 347 347 346 346 346 347 347 344 344 344 346 348 348 347 345 345 345 345 346 346 347 345 344 347 344 340 340 342 341 343 345 346 348 347 346
348 349 352 354 353 354 352 350 350 350 354 356 355 355 354 352 351 351 351 349 350 350 351 352 351 351 352 351 351 352 351 351 351 350 350 351 352 351 351 351 350 349 349 348 348 349 348 347 346 345 342 341 341 342 342 343 345 345 346 347 347 347 346 346 346 347 347 348 346 343 343 343 345 347 346 347 346 347 346 345 344 344 347 346 342 345 343 332 331 335 337 336 339 344 347 347 347
348 348 348 351 351 353 352 349 348 347 352 356 356 352 351 352 351 351 351 349 350 350 351 351 350 351 351 351 351 351 351 351 351 351 351 351 352 352 352 351 351 351 350 348 348 348 348 348 348 346 343 339 340 341 341 343 344 344 344 346 347 346 344 343 344 346 346 347 344 341 342 342 345 347 345 345 344 343 342 342 344 344 346 345 340 339 335 328 332 338 338 338 341 344 347 346 345
349 349 346 347 347 350 354 351 347 347 351 356 354 346 346 353 352 350 351 349 351 351 351 352 349 349 350 352 351 350 351 351 352 351 351 351 352 352 352 352 351 351 351 349 349 348 348 349 348 347 344 340 339 339 339 342 342 341 342 345 346 343 341 341 343 345 344 345 345 342 343 343 345 346 344 342 340 340 340 340 344 347 343 338 334 333 336 338 340 345 346 345 344 344 346 345 344
348 350 348 346 339 341 353 354 348 348 351 356 353 342 343 351 353 352 351 349 350 351 351 351 350 348 348 351 351 350 351 351 352 351 351 351 352 352 352 353 352 352 352 350 350 349 348 349 347 346 344 342 339 337 337 339 340 338 339 342 343 340 340 343 346 346 345 345 346 345 345 343 343 344 342 341 340 340 344 343 344 348 340 334 335 334 341 346 344 346 348 347 345 345 345 344 343
346 344 341 343 336 339 354 357 351 350 351 355 352 343 344 350 353 353 351 350 351 350 350 352 350 348 347 350 349 349 350 352 351 351 351 351 352 352 352 353 352 353 352 351 350 349 349 348 346 345 344 343 341 337 336 337 339 337 334 337 339 339 339 345 348 348 348 347 347 346 345 343 343 344 342 341 341 342 346 346 346 344 335 338 343 336 339 346 346 346 347 347 347 345 345 343 342
343 340 335 337 336 337 348 354 355 351 352 355 351 347 346 350 352 352 352 352 351 351 351 351 351 349 347 348 349 350 350 350 350 350 351 351 352 351 351 353 353 353 352 352 351 349 350 348 345 346 345 343 341 337 336 337 339 337 333 333 337 338 341 345 348 348 349 348 348 346 343 342 343 344 343 342 342 344 347 347 347 344 338 343 345 340 343 347 346 345 345 347 347 347 346 343 342
337 338 334 335 336 334 339 348 357 354 353 355 353 350 347 348 351 351 352 351 350 352 351 351 352 349 347 347 348 349 349 349 349 349 350 350 351 351 352 352 353 353 352 352 352 349 350 348 346 348 348 346 342 338 338 339 339 337 336 335 335 338 342 346 348 348 348 348 349 345 340 342 344 344 343 342 341 343 346 347 347 346 343 344 342 343 348 347 347 347 346 346 344 347 348 345 343
331 332 331 332 334 333 333 340 352 354 354 354 351 352 350 348 351 352 351 352 350 352 352 351 351 350 347 346 347 347 348 349 348 348 349 349 350 351 351 352 352 352 352 353 352 351 350 350 349 347 348 348 343 337 341 342 339 337 339 339 336 335 341 347 348 348 348 348 349 343 338 339 342 343 342 340 339 341 346 347 346 344 342 343 342 344 347 347 348 347 346 347 345 344 346 346 344
332 332 332 330 330 333 335 338 345 348 349 352 350 348 349 348 349 352 351 352 352 351 352 351 350 351 348 346 346 346 346 347 347 347 348 348 350 350 351 352 352 352 353 353 353 352 351 351 349 345 344 348 345 341 342 343 343 341 342 343 341 335 341 345 347 348 348 349 349 345 338 337 338 340 340 339 338 340 346 348 345 343 343 344 343 344 345 347 347 346 346 346 346 345 343 344 344
335 334 333 333 330 331 337 341 344 346 342 343 348 347 347 345 347 351 352 351 352 351 352 351 351 351 349 348 346 346 346 346 347 347 348 348 349 350 350 351 352 352 353 353 353 353 352 351 349 342 340 345 346 344 344 344 346 346 344 346 346 343 343 345 346 348 348 349 349 345 340 337 338 339 338 338 338 339 344 345 343 343 344 345 345 346 346 346 345 344 346 345 344 345 344 344 344
335 335 332 331 331 331 335 340 343 348 342 337 345 348 348 348 345 350 352 351 351 351 352 352 351 351 350 349 347 346 347 346 347 348 348 349 349 350 351 351 352 352 352 352 352 353 352 352 350 344 341 342 343 343 343 344 346 345 344 346 347 347 345 344 346 348 348 349 347 343 340 338 339 340 338 338 339 339 342 346 344 343 346 346 344 344 344 343 341 343 346 346 344 344 344 344 345
334 334 331 328 330 330 334 342 345 348 343 338 343 345 343 347 346 348 353 352 351 351 350 351 350 351 350 349 349 348 347 347 347 348 348 349 349 350 350 351 351 352 353 352 352 353 352 351 350 346 343 341 340 341 339 341 343 342 343 347 348 348 347 345 347 348 348 348 347 344 341 339 340 342 340 338 340 342 344 346 347 345 345 345 344 342 342 341 340 344 346 346 345 343 342 342 344
333 332 329 326 330 328 328 340 350 351 346 342 346 345 344 347 347 349 354 353 353 351 350 350 350 350 350 350 350 348 348 348 347 348 348 347 348 350 350 351 351 351 352 353 353 352 352 350 347 346 344 342 340 340 339 339 340 337 339 343 345 347 349 347 347 347 348 348 348 346 343 340 340 344 346 344 345 346 344 344 348 348 344 343 344 345 344 343 343 344 344 346 347 344 341 342 344
331 332 328 327 329 327 327 335 345 348 347 350 350 342 339 346 348 350 353 354 354 352 351 351 350 350 349 349 349 349 348 348 348 347 347 347 348 349 349 351 351 351 352 352 353 353 352 350 345 344 345 343 342 342 341 340 340 339 338 338 340 344 347 347 346 346 347 347 347 347 346 342 340 345 348 348 349 347 343 343 346 348 345 342 344 347 344 343 342 342 344 346 346 344 343 343 345
328 331 330 329 329 329 327 330 334 333 337 352 350 330 328 340 344 348 353 355 354 355 354 352 351 351 350 350 349 349 348 348 348 347 346 347 347 348 349 351 351 351 351 351 352 352 353 351 346 344 344 344 343 343 342 342 341 341 340 338 338 341 344 346 346 346 348 347 347 347 347 345 342 345 347 348 349 347 343 343 343 346 348 344 344 346 345 343 343 342 342 343 343 344 345 345 345
325 328 329 329 329 328 327 328 329 324 328 346 346 328 324 331 340 348 353 355 354 355 355 353 352 352 351 351 349 348 348 348 348 348 347 347 347 347 349 350 350 350 350 350 352 352 352 351 347 344 345 344 344 343 343 342 342 341 340 339 341 344 345 346 347 347 348 349 348 347 346 346 344 344 346 346 347 346 342 343 343 344 348 348 346 346 346 345 342 341 342 344 345 347 347 347 345
324 328 329 328 329 329 327 326 327 327 330 339 343 335 325 323 335 350 350 350 353 354 355 353 353 353 351 350 350 349 349 348 348 348 347 347 347 348 349 350 349 349 349 350 351 352 350 347 345 344 344 345 345 344 342 342 342 341 340 340 344 347 348 348 348 347 348 349 348 347 347 347 344 343 346 346 344 343 342 343 343 344 346 350 350 348 347 346 344 344 346 346 346 346 347 346 346
328 330 329 330 330 330 330 327 326 330 329 326 333 338 327 321 335 351 349 345 348 351 353 354 353 353 352 351 349 349 348 348 348 347 348 347 347 348 348 349 349 348 349 350 351 352 350 346 344 344 345 345 345 344 344 343 342 342 341 340 343 347 349 350 350 348 348 349 349 349 347 347 345 342 342 342 340 341 343 343 343 344 344 347 349 349 348 347 346 348 349 347 345 346 348 347 347
329 329 329 331 333 332 332 329 328 330 325 321 327 332 325 320 328 343 346 342 342 346 349 351 354 354 353 352 350 349 349 349 348 347 347 348 347 347 347 347 349 348 349 350 350 352 352 348 343 344 344 345 345 345 344 344 343 342 342 341 341 344 347 350 351 349 347 347 347 348 348 348 347 345 342 341 340 340 342 343 344 344 345 347 349 349 349 349 349 351 350 349 349 349 350 350 349
329 328 329 331 333 334 333 332 330 326 322 322 325 328 326 321 322 331 340 339 337 339 343 347 352 354 354 352 350 349 349 348 348 348 347 348 347 347 347 347 348 349 349 350 352 352 353 350 344 343 344 344 345 345 345 344 344 344 343 342 341 341 344 347 348 347 346 344 344 348 349 347 348 348 346 344 342 342 343 343 344 346 347 348 349 348 349 350 350 351 351 351 350 349 350 352 351
328 328 329 326 327 330 329 329 329 323 321 325 326 329 328 321 323 328 334 336 335 336 340 343 347 351 355 354 352 349 349 349 349 348 348 348 348 347 348 348 348 350 350 351 352 352 353 352 347 343 344 344 345 345 345 344 345 345 344 343 342 341 342 344 346 346 346 344 344 348 349 348 348 348 347 347 345 344 344 343 343 346 348 349 349 348 349 350 351 351 352 352 352 350 350 352 351
328 327 326 321 320 323 322 322 323 321 322 326 327 330 328 322 325 331 332 333 335 338 340 341 342 347 352 353 352 350 350 350 349 348 348 348 348 349 348 348 349 351 351 351 352 352 353 353 347 343 344 344 344 345 346 345 345 345 345 345 344 343 342 343 345 348 348 347 347 348 349 349 349 348 347 347 345 344 344 344 341 342 347 349 348 347 348 351 351 352 353 353 353 352 351 351 351
327 325 322 320 320 321 320 320 321 320 321 325 330 333 326 322 326 332 333 333 338 340 341 343 343 344 348 351 351 351 350 350 350 349 348 347 349 349 348 349 350 351 351 352 352 354 354 351 346 343 344 343 343 344 345 345 345 345 346 346 345 345 343 343 345 349 351 350 349 349 349 350 349 348 348 347 345 344 345 345 340 338 343 345 343 342 344 347 348 350 353 353 353 354 354 353 352
328 328 326 322 320 321 320 320 320 319 320 324 331 330 322 320 327 333 334 337 340 340 342 345 347 348 350 350 351 351 350 350 350 350 349 348 349 349 349 349 349 350 350 352 353 354 353 348 344 344 344 343 344 344 344 345 346 346 345 346 346 346 345 345 347 349 350 351 350 350 349 349 349 348 348 346 344 344 344 346 344 340 341 342 341 340 341 346 345 344 349 350 350 353 354 353 352
328 330 326 322 323 323 320 320 320 320 319 322 325 325 323 326 331 333 335 337 341 343 345 347 348 349 350 350 351 352 351 350 350 350 350 349 349 350 350 349 348 350 351 352 354 352 348 344 344 344 344 344 344 344 343 344 345 345 346 346 346 347 347 348 349 348 348 349 350 350 349 349 349 348 348 346 345 344 344 346 346 345 344 342 341 340 342 348 348 344 346 345 346 352 354 352 351
326 325 322 324 327 326 320 319 321 320 317 320 321 320 323 326 328 331 336 339 342 346 347 347 348 347 348 350 352 351 352 350 350 351 351 350 351 351 350 349 349 351 351 350 349 347 345 344 345 344 344 345 345 344 343 343 344 345 345 345 345 346 347 348 350 349 349 350 350 349 349 349 349 348 348 346 345 344 343 345 346 347 346 344 343 342 343 348 350 349 348 346 345 349 353 353 352
325 322 323 328 328 327 323 319 320 320 317 319 321 319 319 320 322 330 335 335 338 346 346 346 348 350 349 350 352 353 353 351 351 351 352 352 352 351 351 349 349 351 349 347 344 345 345 344 345 345 344 345 345 344 343 344 344 344 345 345 344 346 347 347 350 352 352 352 351 349 348 349 349 349 348 347 346 344 344 345 346 347 347 347 346 345 345 347 349 350 350 349 347 349 351 352 351
327 324 327 327 322 321 322 320 319 318 317 318 319 319 318 318 321 327 333 330 334 346 349 346 347 350 350 351 352 353 354 353 353 352 352 353 353 352 352 350 350 350 348 346 345 346 347 345 344 344 345 345 345 345 345 344 344 345 345 345 346 347 347 347 350 352 352 352 352 351 350 349 349 348 348 348 346 345 344 345 346 347 347 348 348 347 348 348 348 349 349 349 349 349 348 348 349
326 325 327 326 324 322 322 321 320 318 317 318 318 318 318 321 325 328 330 331 334 343 348 348 347 348 349 350 352 355 355 354 353 352 352 353 353 352 352 350 350 351 348 347 347 347 346 345 344 344 344 345 345 345 345 345 345 345 345 345 346 349 348 347 349 351 352 352 352 351 350 349 349 348 348 348 348 347 345 345 346 346 346 348 348 349 349 349 348 348 347 348 348 349 349 347 346
324 323 323 323 325 324 323 322 321 318 318 318 318 317 317 323 331 332 331 336 339 344 348 348 348 347 347 350 353 355 356 355 354 352 353 352 352 352 352 351 352 352 349 348 347 346 345 344 345 345 344 345 345 345 345 345 346 345 345 345 346 349 351 349 350 351 351 352 351 351 351 349 349 348 347 347 348 349 348 347 346 346 347 347 348 349 349 349 349 348 346 347 347 348 349 349 348
326 324 323 324 324 322 320 320 320 319 318 317 318 317 318 326 333 333 336 344 346 347 347 348 348 349 350 353 354 356 357 356 354 353 352 352 352 352 352 352 353 351 350 348 347 345 345 345 345 344 345 344 344 346 345 346 346 345 344 345 345 349 352 352 351 351 351 351 350 350 351 350 349 348 347 346 346 347 348 349 348 347 347 347 348 350 349 349 349 349 347 347 347 347 346 346 346
Wind_Speed
3 2 1 1 1 3 3 4 2 3 2 5 5 5 6 4 5 7 8 7 5 5 4 8 11 10 4 3 5 7 7 5 4 2 3 6 15 19 16 17 19 20 20 19 21 22 22 21 21 21 22 22 21 21 22 22 22 21 20 20 19 18 16 15 15 15 14 13 13 13 12 10 10 12 12 12 11 10 10 10 10 9 8 7 7 6 5 5 6 7 7 8 9 9 11 12 11
1 1 1 2 2 3 2 3 2 3 3 6 6 5 6 4 6 8 8 6 6 7 9 12 12 7 2 4 6 8 9 10 8 7 9 12 18 17 17 18 19 21 20 19 19 20 20 20 21 20 21 21 21 21 21 21 21 20 20 20 19 18 16 16 15 14 13 12 12 12 12 10 10 11 12 12 11 10 9 9 9 8 7 6 6 5 4 4 5 6 7 8 8 9 11 11 11
0 2 2 3 3 5 3 3 2 3 4 6 6 6 5 5 8 9 8 9 10 12 14 14 11 6 4 7 6 6 6 8 10 12 13 15 15 16 19 18 19 21 20 19 18 18 18 18 19 19 19 20 20 19 19 19 19 18 18 19 18 17 16 16 15 14 13 12 12 12 12 10 9 10 11 11 10 9 8 8 8 7 6 5 4 3 3 3 4 5 6 7 8 9 11 11 11
1 2 2 3 4 5 4 2 1 2 5 6 6 6 5 7 9 9 10 11 12 13 14 13 9 4 3 6 5 6 8 8 9 12 15 13 12 18 21 19 19 20 20 19 18 18 17 18 18 18 18 18 19 18 18 17 17 17 17 17 17 17 16 15 14 13 12 12 11 12 12 10 8 9 9 9 9 8 7 6 6 6 5 4 4 2 2 2 3 4 6 7 8 9 10 11 10
2 3 2 3 4 2 3 1 2 3 5 5 6 7 7 8 9 10 11 11 11 11 12 10 7 5 5 6 2 3 8 9 9 11 15 13 13 18 20 20 19 19 20 19 19 16 15 17 17 17 18 17 18 18 18 17 16 17 17 17 16 16 16 16 14 14 13 13 11 11 12 10 9 9 9 9 8 7 6 6 5 5 4 4 3 2 1 2 3 3 5 6 7 9 10 10 10
3 4 3 2 4 3 3 2 4 6 6 4 7 7 7 9 9 11 11 11 9 9 9 6 6 8 7 7 5 6 7 7 9 12 15 15 17 19 19 19 18 17 19 19 19 16 15 17 16 16 16 16 16 16 16 16 16 17 18 17 16 16 17 16 15 15 15 14 13 12 12 12 10 10 10 9 8 7 6 5 5 4 4 4 3 2 1 2 2 3 5 6 7 9 10 10 10
2 3 2 3 3 4 1 5 5 7 5 5 7 8 8 9 8 11 11 10 8 7 7 5 7 7 6 6 6 8 6 6 10 12 15 17 19 19 19 18 17 17 18 19 19 16 16 17 16 15 15 15 15 15 15 15 15 16 17 17 15 16 16 17 17 16 16 15 14 13 13 13 11 11 10 9 8 7 6 5 5 4 5 4 4 3 2 2 3 3 4 5 6 8 9 9 10
3 3 3 4 2 3 1 6 5 6 5 4 7 8 8 9 8 9 8 7 7 7 6 7 7 4 6 4 4 6 5 7 10 14 17 20 21 20 18 17 18 18 18 18 18 16 17 16 15 15 15 14 14 14 14 14 14 15 16 16 15 16 16 16 17 17 16 16 15 13 13 13 12 12 11 10 9 7 7 6 5 5 5 5 4 3 2 3 3 3 4 4 6 7 8 8 9
3 3 4 4 1 3 3 6 5 6 6 5 6 7 8 8 7 7 7 7 6 7 7 7 5 3 7 5 5 7 6 8 13 17 19 21 21 19 17 17 18 19 18 18 18 17 16 16 14 15 15 13 13 14 14 13 13 14 15 15 15 16 16 15 16 16 16 16 15 14 15 15 14 12 11 10 9 8 7 6 6 6 6 6 4 3 2 2 2 2 3 3 5 7 7 7 8
3 2 3 3 2 4 4 5 6 6 7 6 6 7 8 7 7 6 6 7 7 7 6 6 4 4 8 7 7 6 7 12 16 19 20 21 21 18 17 17 18 19 19 19 18 18 17 16 14 13 13 12 12 14 13 13 13 14 14 14 14 15 15 15 16 15 16 16 16 16 16 16 15 13 11 10 9 8 7 6 6 6 6 5 4 3 2 2 2 2 2 3 4 6 6 7 8
3 2 2 3 2 3 4 5 6 6 7 6 6 7 7 7 7 7 6 6 7 6 6 5 5 6 7 7 7 7 10 14 17 20 21 21 21 18 17 16 17 18 18 20 19 18 19 17 14 13 12 11 12 14 13 13 13 13 13 13 13 14 14 15 15 14 15 15 16 17 16 16 15 13 11 10 9 8 8 7 6 6 5 5 4 3 2 2 2 2 2 2 4 6 6 7 7
3 1 3 3 2 3 4 6 7 7 7 6 7 6 6 7 5 6 6 6 6 5 6 4 5 7 6 7 7 9 11 14 17 20 21 20 20 19 17 16 17 17 18 21 18 17 19 18 17 16 14 13 13 14 13 13 13 13 13 12 12 12 13 14 14 14 15 15 16 16 15 15 14 13 11 10 9 8 7 6 6 5 5 4 4 3 2 2 2 2 2 2 4 5 6 7 7
4 2 4 1 2 2 5 5 6 7 7 6 7 6 5 7 5 5 6 7 6 5 6 5 5 5 5 8 9 10 12 15 18 20 20 19 18 18 18 17 17 16 18 20 17 16 17 17 17 17 16 15 16 16 15 14 13 13 12 12 12 12 13 15 14 14 15 15 15 15 15 15 14 12 10 9 8 7 7 6 6 5 5 4 4 3 2 2 2 2 2 2 4 6 7 7 7
4 3 4 0 2 2 4 5 6 6 6 6 6 4 5 6 4 4 4 6 7 6 6 5 5 4 7 9 9 12 14 17 19 20 20 18 17 17 16 17 17 16 18 19 17 16 16 15 15 15 15 15 16 16 15 14 13 13 12 12 12 12 14 16 15 14 15 16 16 16 16 15 14 12 10 9 8 7 7 6 6 6 5 4 4 3 2 3 3 2 3 3 4 6 8 8 8
4 3 4 1 3 3 2 3 5 5 5 7 5 3 5 5 4 4 3 4 7 7 7 6 4 2 5 6 8 14 16 19 20 20 20 18 18 17 15 15 17 17 16 17 17 16 15 15 14 14 15 15 16 15 14 14 13 13 13 12 12 13 14 14 14 14 15 15 16 17 17 15 13 11 10 8 8 7 6 6 6 6 5 4 4 3 3 3 3 3 3 4 5 7 8 8 8
3 4 4 2 2 3 3 2 4 5 5 5 5 3 5 5 4 4 2 2 7 7 5 5 4 2 2 4 11 18 19 21 20 20 20 18 19 17 15 14 16 18 18 17 16 16 16 15 14 14 15 16 16 15 14 14 13 13 13 13 13 13 13 13 13 14 15 16 17 18 16 13 11 10 9 8 7 7 7 7 7 6 5 4 4 3 3 4 4 4 3 4 6 8 9 9 8
3 5 3 2 2 2 2 3 3 4 6 6 5 3 4 6 4 4 4 4 7 8 5 5 5 4 5 8 16 21 21 22 21 21 20 19 18 16 15 14 14 17 19 18 18 17 17 17 15 14 15 16 17 16 14 14 14 13 13 13 13 13 13 13 14 14 15 17 19 17 14 11 10 9 9 8 7 6 7 7 6 6 5 5 4 4 4 5 5 4 4 5 6 9 10 9 8
4 3 2 1 2 2 2 4 4 2 5 5 5 2 3 6 6 6 6 6 7 8 7 7 8 7 9 14 19 22 22 22 22 22 21 19 18 16 15 15 14 16 18 18 19 18 17 17 17 16 15 16 17 16 15 15 14 13 13 13 12 13 14 14 13 14 15 17 17 15 13 11 9 9 9 9 8 7 7 7 6 6 5 5 5 4 5 5 5 4 4 5 7 10 10 9 8
3 3 2 2 5 3 2 4 5 3 4 3 4 3 2 5 7 7 6 7 8 7 8 9 10 12 13 17 20 21 21 21 21 21 21 20 19 17 16 16 15 16 17 16 17 17 17 18 18 17 16 15 16 14 15 15 14 13 13 13 13 13 13 14 14 15 17 17 14 13 11 10 9 10 11 9 9 8 7 6 6 5 5 5 5 5 6 5 4 4 5 6 9 10 10 10 7
1 3 1 5 5 3 5 5 5 5 4 2 3 4 4 5 5 5 4 6 6 4 8 9 11 15 17 19 20 21 21 20 20 19 19 19 18 18 16 17 17 17 17 15 15 15 16 18 18 16 15 15 15 14 14 14 14 13 14 13 13 13 13 14 15 15 16 15 13 13 12 11 11 11 10 9 8 7 7 6 5 4 4 4 4 4 5 5 5 5 6 8 10 10 10 8 6
1 3 3 6 3 1 7 6 4 5 4 2 2 3 5 5 3 5 4 4 4 3 6 8 11 17 20 22 22 21 21 20 20 18 18 18 17 16 15 16 16 16 17 16 16 15 15 17 16 15 14 15 15 14 14 14 14 14 15 14 13 14 14 15 14 14 15 16 15 13 12 12 11 10 10 9 8 7 7 6 5 4 4 4 4 4 4 5 5 6 7 9 10 9 8 7 6
1 1 4 4 2 1 7 6 3 3 3 2 1 1 2 2 4 4 4 2 4 5 6 7 11 17 21 24 23 22 22 22 20 19 18 17 16 15 14 15 14 14 15 16 16 16 16 16 15 15 14 15 16 15 14 14 15 14 14 14 14 14 14 14 14 14 15 15 13 11 11 11 10 9 9 9 8 7 6 6 6 5 5 5 4 6 6 6 7 6 8 10 9 7 6 8 7
2 2 4 2 1 2 6 6 2 1 1 2 2 1 2 3 4 4 5 2 5 6 6 9 12 16 20 24 24 23 23 23 21 20 19 17 16 15 14 14 14 14 14 14 15 15 16 16 15 15 14 15 15 13 13 13 14 13 12 13 14 13 12 12 12 12 12 11 10 10 10 10 9 8 8 8 8 8 7 6 6 6 6 5 5 7 6 6 7 7 9 10 10 7 5 6 4
2 1 4 2 2 3 5 6 4 1 1 2 2 2 2 4 3 3 5 3 3 4 7 10 13 16 19 22 23 23 23 22 21 20 19 17 16 15 14 13 13 14 14 13 14 14 15 16 15 14 13 13 13 12 12 11 11 11 11 12 12 11 10 8 9 9 9 9 9 10 10 9 9 8 7 8 8 8 8 7 6 6 5 5 7 7 6 7 7 7 10 10 10 9 5 3 2
1 2 3 3 3 3 4 4 3 1 1 1 3 2 1 2 2 3 5 4 4 5 8 11 14 17 19 21 22 22 22 21 21 20 19 17 16 16 14 14 14 14 14 14 14 14 15 15 15 14 13 12 12 13 13 11 11 12 11 11 11 11 9 8 9 9 8 8 8 9 9 8 8 8 8 8 8 8 8 8 7 6 6 6 6 6 6 7 6 6 9 9 8 8 4 2 2
3 2 3 4 3 3 3 2 2 1 2 1 3 3 2 1 2 4 5 5 6 7 8 11 14 17 18 20 21 21 21 21 20 20 19 17 17 17 16 15 15 15 15 15 15 15 15 16 15 15 14 14 14 14 14 14 13 13 12 12 11 10 10 9 9 9 8 8 8 9 9 8 8 8 8 8 9 8 8 8 7 7 6 6 6 6 6 7 6 6 8 8 7 6 3 2 2
4 2 4 4 3 2 2 2 1 2 2 2 4 3 3 3 4 4 5 7 8 8 10 11 13 15 17 19 20 19 20 20 20 20 19 18 18 18 17 16 16 16 16 17 16 16 17 17 16 16 16 17 16 16 16 15 14 14 12 11 10 10 9 9 9 8 8 8 8 9 10 10 9 8 8 8 8 8 8 7 7 7 6 6 8 7 6 8 9 8 8 9 8 6 3 2 1
3 2 3 4 3 3 3 2 1 1 2 1 3 4 4 5 5 3 7 8 9 9 11 11 11 14 16 18 19 18 18 19 19 19 19 18 18 18 17 17 17 17 17 17 17 17 17 17 17 18 17 18 17 16 16 15 14 13 12 11 10 9 9 9 9 9 8 8 8 9 10 10 9 8 8 8 8 8 8 8 7 8 6 7 9 7 7 11 12 10 11 11 9 6 3 2 1
1 1 1 3 4 4 4 4 2 2 2 1 2 5 7 8 7 5 8 9 10 10 11 11 11 13 15 17 17 17 17 18 18 18 18 18 16 17 17 16 16 16 17 17 17 16 17 17 18 18 18 18 18 17 16 14 13 12 12 11 9 9 9 9 10 9 9 8 8 9 10 10 9 8 8 9 9 9 9 9 7 7 7 8 9 10 10 12 12 9 9 9 7 5 3 1 1
2 1 3 2 5 4 4 6 5 3 3 2 2 4 3 7 9 8 10 11 11 11 12 12 11 12 14 16 16 16 17 17 18 17 17 17 15 15 16 16 16 16 16 16 17 17 17 17 18 18 18 18 19 18 17 15 13 12 12 11 10 9 9 9 10 9 9 8 8 9 9 10 9 8 8 9 10 10 9 9 8 6 8 10 11 12 11 10 10 9 7 6 6 5 2 1 1
2 1 2 2 1 4 4 6 5 4 3 4 4 4 0 2 8 11 11 11 12 11 12 13 12 13 14 15 16 16 16 16 17 16 16 16 15 14 15 16 16 15 15 16 17 17 17 18 18 18 18 18 18 19 18 16 14 13 13 12 10 10 9 9 10 9 9 9 9 9 9 10 9 8 9 10 10 9 7 7 8 7 10 11 11 13 12 9 10 8 7 6 5 4 2 1 1
2 1 1 0 1 4 6 5 5 4 2 5 6 3 1 3 6 11 12 12 12 11 12 13 12 13 14 15 15 15 16 15 16 16 16 15 15 14 14 15 16 16 15 15 16 17 17 17 18 18 18 18 17 17 17 15 14 14 14 13 12 11 10 10 10 9 9 9 9 9 10 10 10 9 9 10 10 9 7 7 7 8 11 11 10 13 13 10 10 8 7 6 4 3 2 1 0
3 2 1 2 1 1 5 5 6 7 3 5 7 4 1 3 7 11 12 13 13 12 12 14 13 13 14 15 15 15 15 15 16 16 16 16 15 14 14 15 16 16 15 15 16 17 17 17 17 17 17 17 17 17 16 16 15 14 14 14 13 12 11 10 10 10 9 9 10 10 11 11 10 10 9 10 10 9 8 7 7 8 11 10 11 13 11 9 9 8 7 6 5 3 2 1 1
3 1 0 1 1 1 2 4 6 8 7 6 8 7 6 1 7 11 12 14 14 13 13 14 14 13 14 15 15 16 16 16 17 17 17 16 15 15 14 14 15 15 15 15 15 16 17 17 17 17 17 17 17 17 16 16 16 14 14 14 14 13 12 10 9 10 10 10 10 11 12 11 10 10 10 10 10 10 9 8 8 9 10 10 12 12 9 9 9 7 5 5 5 4 2 1 2
1 1 2 1 2 1 1 2 3 7 8 8 8 8 9 6 6 10 12 14 14 13 13 14 15 14 14 15 16 16 16 17 17 18 18 17 16 15 14 14 14 15 14 15 15 15 16 16 16 18 18 17 18 17 15 15 15 15 15 14 14 15 13 11 11 11 11 10 10 11 12 12 11 10 10 10 10 11 9 8 8 9 10 11 12 11 10 9 8 7 6 4 4 3 2 1 1
5 5 4 4 4 2 2 2 2 5 6 7 9 9 9 7 6 9 12 15 14 14 13 14 15 15 15 16 16 16 17 17 17 18 18 18 17 16 15 14 14 15 14 15 16 16 16 17 17 18 18 18 18 17 15 15 15 15 15 14 15 16 15 13 12 11 11 10 10 11 12 12 12 10 10 11 11 11 9 8 9 9 10 11 11 11 10 9 8 7 6 5 3 2 2 1 1
6 6 5 5 5 2 2 1 3 4 5 6 7 9 9 7 5 8 13 15 15 15 15 15 16 16 16 17 17 17 17 17 17 18 18 18 18 17 16 15 15 15 15 16 16 16 16 17 17 17 18 19 19 17 16 16 16 16 16 15 15 15 15 15 13 12 11 11 12 12 12 13 12 11 11 11 11 11 10 9 9 9 10 10 11 11 10 10 10 8 6 6 3 2 3 2 2
7 6 6 5 4 2 2 2 3 4 4 5 5 8 10 8 6 8 13 15 15 17 17 17 18 18 17 18 18 18 17 17 18 18 19 19 18 18 17 16 16 16 16 16 16 16 16 17 17 17 18 19 20 18 17 17 17 17 16 16 14 14 15 16 14 12 12 11 13 13 13 14 13 11 12 12 12 12 11 9 9 10 10 10 11 12 12 12 10 8 6 5 4 4 4 4 3
8 6 6 4 3 3 2 4 5 5 3 5 6 8 9 8 8 9 13 16 16 18 19 18 19 19 19 19 19 19 18 17 18 19 20 20 20 19 18 18 17 17 17 17 17 17 16 17 18 18 18 19 19 20 19 18 18 18 16 15 14 13 13 14 13 12 12 12 12 13 14 14 14 12 11 12 12 12 11 10 9 10 10 11 12 12 12 11 10 8 6 5 5 5 6 5 4
7 6 5 4 3 4 1 4 5 5 5 5 6 7 9 7 7 8 13 16 16 17 19 18 19 20 20 20 19 20 20 19 20 20 21 21 21 21 20 19 18 18 17 17 17 18 17 18 19 19 19 19 19 20 20 18 18 18 17 17 16 14 12 13 14 14 14 13 12 13 15 15 14 12 11 11 11 11 13 11 9 10 11 12 11 10 11 10 10 9 7 6 6 6 6 6 5
8 8 7 6 6 8 6 1 1 5 8 6 6 6 4 3 5 7 10 14 14 16 18 19 20 21 21 21 20 20 21 21 21 21 21 21 22 22 21 20 19 19 19 19 19 19 18 19 19 19 19 19 20 20 19 19 19 17 17 18 18 17 15 15 16 15 14 15 14 13 15 16 16 13 11 11 11 12 14 12 11 11 11 12 11 9 10 10 10 9 9 8 8 7 7 6 6
7 7 5 6 7 9 8 5 4 5 5 4 5 5 2 3 4 4 7 11 13 15 18 19 20 21 21 21 21 20 21 22 22 22 21 21 21 21 21 21 20 20 20 19 19 19 19 19 19 19 18 19 19 19 19 19 20 18 17 19 19 20 19 17 16 15 14 15 14 13 14 16 17 16 13 12 11 13 14 14 13 12 10 12 12 10 10 9 10 10 10 11 9 8 9 8 7
6 2 1 5 7 9 9 6 5 5 1 3 4 5 1 2 4 5 6 9 12 14 15 18 20 21 22 22 22 22 22 22 22 22 22 21 21 21 21 22 21 21 20 19 19 19 19 20 20 19 18 19 19 20 19 19 20 20 18 18 19 19 18 17 16 15 13 14 14 14 14 15 18 17 14 14 14 15 16 16 15 13 11 10 11 12 11 10 10 10 10 11 9 9 10 9 9
3 4 2 6 7 9 9 7 5 4 2 3 5 5 5 2 4 6 6 7 9 12 14 17 20 22 23 23 23 23 23 23 23 23 23 22 21 22 22 23 22 21 20 19 19 20 20 21 20 19 19 19 19 20 20 19 20 20 18 17 17 17 16 15 16 16 13 13 14 14 14 15 18 18 16 16 17 16 17 18 17 17 14 11 10 11 10 10 10 10 11 13 12 12 11 9 9
5 1 4 6 6 8 8 6 5 3 4 4 4 4 5 3 4 7 6 5 7 11 13 15 19 22 22 23 23 23 23 23 23 23 23 23 23 23 22 22 21 20 19 20 20 20 21 21 21 21 20 19 19 19 19 19 19 19 18 17 18 17 14 13 14 16 15 14 14 15 15 14 15 18 18 17 18 17 17 19 19 19 18 14 12 10 10 11 11 11 13 14 13 11 10 10 10
3 1 4 5 4 6 5 5 3 3 5 3 2 3 5 3 3 5 5 5 5 8 10 13 18 22 22 22 23 23 23 23 23 23 23 24 24 23 23 22 21 20 20 20 20 19 20 22 22 22 21 20 20 19 19 18 19 19 18 18 19 19 16 14 14 15 16 16 16 15 16 16 14 15 17 18 19 19 19 19 20 19 18 16 13 12 11 11 11 12 12 12 11 11 10 10 11
2 4 7 6 4 3 3 3 3 4 5 2 1 3 5 5 1 3 3 2 1 2 3 6 13 19 21 21 22 23 23 23 23 23 23 23 23 23 23 22 21 20 20 20 19 20 20 21 23 23 22 22 21 20 19 19 19 19 18 18 19 20 18 16 15 15 16 18 17 15 15 17 16 14 14 16 18 19 19 20 20 18 17 16 15 14 12 11 12 11 10 10 11 12 11 10 10
5 6 7 5 4 3 4 4 4 6 5 1 0 4 6 5 2 1 1 1 2 2 1 2 6 13 18 20 21 22 23 23 23 23 23 23 23 23 22 22 21 20 20 20 20 20 20 21 23 24 24 24 22 21 20 20 20 19 18 17 18 19 19 18 17 15 15 17 17 15 14 16 17 16 14 14 15 16 17 20 21 19 18 17 16 14 13 12 11 11 10 10 11 12 11 11 10
7 7 6 6 5 4 5 5 5 6 4 1 1 3 5 6 6 5 4 2 3 3 3 3 4 8 13 18 20 21 22 22 23 23 23 23 23 22 22 22 21 21 21 21 21 20 20 22 24 25 24 24 23 22 22 22 21 20 19 17 17 18 19 19 18 15 15 15 15 15 15 15 17 17 15 14 14 14 15 19 22 22 20 19 17 15 14 13 12 11 11 11 10 11 11 11 11
9 8 6 6 5 5 7 6 5 5 3 1 1 4 5 6 5 4 4 3 1 1 2 3 3 5 9 13 17 20 21 21 22 22 22 23 23 22 22 22 22 23 23 22 22 20 21 22 24 25 24 23 23 23 23 23 22 20 19 18 16 16 17 18 18 15 13 14 14 14 14 14 15 17 16 15 14 14 14 17 21 23 23 21 19 17 15 15 15 14 12 12 11 10 11 11 12
10 8 7 7 5 5 6 4 4 5 2 2 2 3 5 3 1 1 3 3 2 3 3 1 3 5 7 9 12 17 20 21 21 21 22 22 23 23 23 23 24 24 23 22 21 21 23 23 24 24 23 23 23 23 24 23 22 21 20 19 17 16 16 16 16 15 14 13 13 13 14 14 13 14 15 15 14 14 14 15 17 21 23 22 19 18 16 15 17 16 14 15 13 11 12 13 12
7 7 7 8 6 5 5 5 5 5 3 3 5 4 5 4 3 4 5 5 5 5 4 4 6 8 9 9 11 15 18 20 20 21 22 22 22 23 23 24 24 23 22 22 22 23 25 23 21 21 20 20 20 21 22 22 22 22 20 20 20 18 18 16 16 16 15 14 13 12 13 13 13 13 13 14 14 14 15 14 15 17 20 20 19 18 17 15 16 16 16 17 15 12 12 14 13
4 6 8 6 4 5 6 6 4 5 7 5 4 5 6 5 4 3 4 5 4 4 4 5 7 9 11 10 11 14 16 18 20 20 21 22 22 22 22 24 23 21 21 23 24 24 23 21 18 18 19 18 18 18 18 19 21 22 21 20 20 20 20 18 16 15 14 14 14 13 12 12 12 12 12 13 13 14 15 15 15 15 17 18 18 18 18 17 17 17 16 16 15 13 12 13 14
5 6 8 6 4 6 6 5 4 6 7 4 4 7 7 4 3 2 4 5 2 4 3 6 9 10 10 9 10 12 14 16 18 18 19 21 22 22 22 23 22 22 23 24 24 24 23 22 20 18 18 18 16 16 18 18 19 21 21 19 18 19 20 20 17 14 12 13 14 14 13 12 12 13 13 13 12 13 15 16 16 15 15 16 17 17 18 18 19 18 17 16 15 14 13 14 14
9 4 4 5 6 6 6 6 6 6 6 5 5 6 6 5 3 4 5 4 1 5 4 6 9 9 9 9 10 11 13 14 16 17 17 19 20 21 21 21 21 21 23 23 22 24 25 25 21 19 19 19 16 15 17 19 20 20 20 20 18 17 18 19 18 15 14 13 13 13 12 12 12 13 14 14 14 14 14 16 17 17 16 16 17 17 17 19 20 21 20 18 16 16 16 16 15
9 5 4 5 5 5 4 5 6 6 6 6 5 5 5 4 3 3 3 3 2 4 6 5 7 8 7 8 10 11 12 13 14 15 15 17 18 19 21 21 21 21 23 23 22 24 26 23 20 22 24 22 19 17 16 17 18 19 19 20 19 16 16 17 17 16 15 13 13 12 12 13 14 15 15 15 15 16 16 16 17 17 17 17 17 17 17 18 20 22 22 19 18 17 17 18 17
10 8 9 8 5 4 4 5 6 5 5 5 4 5 4 1 0 4 3 2 2 2 6 6 6 7 7 9 9 9 10 11 12 13 14 15 16 17 18 19 20 20 22 23 23 24 24 21 20 23 25 24 22 21 19 16 14 16 19 19 19 16 15 15 15 15 15 15 14 13 14 16 18 17 18 18 17 17 18 18 17 18 18 18 18 17 17 17 19 21 22 21 20 18 18 19 17
9 9 10 10 8 7 7 7 7 5 6 5 4 6 3 3 1 3 1 3 2 2 6 7 8 9 10 10 10 9 9 9 11 11 12 13 14 15 15 16 18 20 22 23 24 24 24 22 21 23 24 25 24 22 18 15 14 17 18 17 16 15 14 14 13 13 14 16 16 16 17 19 19 19 19 20 20 21 20 19 19 19 19 18 18 18 18 17 18 19 20 20 20 20 21 21 19
Wind_Direction
95 89 61 326 300 290 255 246 231 189 198 93 93 100 90 78 103 112 109 117 117 112 132 142 141 140 139 140 118 71 43 57 84 136 119 128 140 143 142 140 147 147 145 146 147 148 148 150 153 156 155 154 154 154 155 158 160 157 152 151 150 150 150 149 148 149 151 153 153 153 157 163 161 152 146 142 137 132 134 134 134 130 123 115 105 94 79 66 58 52 50 51 50 46 47 49 54
80 28 3 331 298 285 259 226 230 141 138 96 82 78 98 119 112 95 92 99 96 113 135 133 134 136 119 137 111 67 57 57 76 106 107 132 134 133 140 144 150 149 145 145 147 145 147 152 155 155 155 155 155 155 156 159 162 160 157 156 156 155 155 155 153 154 157 158 158 159 162 174 172 160 155 148 141 135 133 133 133 131 123 113 102 90 73 61 55 53 54 54 51 48 51 55 60
261 349 338 325 285 261 259 228 230 122 113 95 87 82 107 108 92 83 84 91 102 122 130 128 129 116 127 149 113 79 89 70 86 106 117 136 137 137 142 149 155 153 147 146 149 146 147 155 156 154 157 158 157 158 157 159 161 161 161 160 161 160 162 161 157 159 166 166 166 166 166 183 187 168 163 155 148 140 133 131 129 128 120 107 97 81 68 57 55 56 59 60 52 51 56 61 65
339 334 324 314 268 239 247 218 101 93 97 96 96 86 89 87 89 91 92 98 113 128 130 133 124 82 117 135 107 107 112 91 96 114 129 143 147 144 145 153 158 156 150 147 149 148 152 157 154 151 155 160 161 164 163 163 165 164 164 164 166 166 166 168 165 167 177 178 177 179 174 187 197 176 170 163 153 146 135 130 125 121 113 102 95 82 67 58 60 61 67 65 54 55 61 66 70
15 340 350 313 272 271 282 219 78 84 81 82 101 91 84 88 97 101 101 107 121 131 133 139 119 100 96 87 53 96 100 100 108 120 132 143 149 146 149 153 155 158 152 148 148 148 159 159 154 152 151 156 164 170 169 167 171 172 170 169 172 172 171 174 176 178 186 191 192 193 185 187 196 181 173 169 157 148 137 129 125 118 111 105 100 103 89 75 77 74 77 70 56 59 67 71 73
3 326 348 306 276 295 282 137 90 88 63 41 95 97 91 95 100 105 109 111 117 126 132 131 122 131 105 84 63 56 79 107 120 130 135 145 151 149 149 148 150 157 153 150 150 150 162 161 157 156 153 157 163 169 170 171 175 178 176 175 177 178 177 178 185 191 192 195 199 200 191 184 187 184 173 168 158 147 141 134 131 124 117 115 116 126 127 112 106 93 87 74 59 62 71 75 76
339 305 297 263 245 250 254 98 86 93 68 23 86 101 101 104 108 112 114 115 119 124 133 124 127 133 103 111 94 63 66 99 125 140 142 146 150 149 147 146 149 156 156 154 152 152 160 162 160 160 162 165 165 166 169 174 178 180 182 183 180 181 181 181 189 198 196 195 200 200 194 189 187 183 174 164 156 149 146 143 138 130 124 122 125 134 149 134 123 110 92 77 63 65 75 80 81
338 313 272 269 214 210 109 93 81 85 90 57 81 95 107 117 118 117 114 115 125 131 140 137 137 121 98 133 103 78 76 98 127 140 143 146 147 148 145 147 153 157 158 155 152 155 160 161 161 163 169 173 173 171 173 176 178 182 184 185 183 182 184 186 189 195 198 196 200 199 197 201 197 185 174 164 156 153 151 147 141 133 129 125 127 137 148 139 133 120 93 82 69 70 81 85 86
321 296 261 267 208 154 109 103 94 87 103 107 98 103 118 127 121 113 107 105 117 129 136 139 149 124 119 128 94 97 102 114 132 137 142 146 146 145 145 153 160 161 158 155 154 155 157 158 158 161 170 178 178 178 180 178 179 182 183 183 184 185 185 189 190 192 196 195 198 198 197 202 201 187 172 163 156 154 150 146 143 136 132 126 128 138 147 145 144 130 95 86 77 80 88 91 92
286 268 282 277 223 148 128 115 110 105 106 108 108 122 138 141 129 110 99 100 110 122 124 136 155 133 126 120 101 111 122 129 136 139 142 146 147 145 151 158 162 164 159 155 156 155 156 156 157 157 164 175 180 182 182 180 183 184 185 182 183 187 185 190 192 190 195 193 193 196 196 199 197 185 168 161 157 153 148 147 144 136 132 128 133 140 151 150 155 150 105 92 86 90 97 102 98
255 205 282 264 196 144 132 121 118 109 111 118 114 128 149 152 140 115 105 102 107 119 128 152 153 133 128 118 109 116 128 138 141 142 145 148 147 145 150 155 160 163 159 156 154 156 159 158 160 161 164 175 183 184 185 185 186 189 190 185 184 188 187 192 193 189 195 195 194 195 194 197 194 180 166 159 157 153 150 151 146 139 137 135 138 143 154 154 166 165 129 111 97 100 111 112 103
277 179 259 243 126 117 122 119 119 114 123 130 121 135 157 158 150 123 116 108 112 123 133 152 146 143 137 118 118 127 137 144 146 147 148 150 148 145 145 150 158 162 160 157 152 157 162 162 164 166 169 177 182 183 188 189 187 190 192 189 188 191 192 196 197 194 196 198 200 199 194 197 194 180 167 160 158 156 156 157 153 147 144 146 147 150 156 158 176 173 158 142 111 111 121 117 112
313 337 279 268 64 112 122 119 123 128 133 113 106 134 166 166 160 125 109 107 112 109 120 135 145 157 123 110 126 138 146 148 150 151 149 149 149 149 149 152 159 164 163 157 152 160 167 166 166 167 170 174 178 181 188 192 192 190 190 192 192 195 197 198 200 200 198 200 206 207 199 198 193 181 169 165 164 164 164 165 161 156 156 159 160 161 164 171 184 178 169 155 125 123 127 124 125
333 338 300 347 108 143 124 126 139 141 125 105 100 133 176 179 160 132 120 114 102 90 106 131 146 149 123 125 142 150 154 153 152 152 151 150 149 151 153 155 159 163 165 158 154 163 170 169 167 167 170 172 175 180 186 191 194 191 190 193 194 195 198 200 202 206 205 203 207 210 204 199 190 179 173 171 173 172 172 170 168 165 166 170 175 178 180 188 194 188 175 156 135 129 132 133 133
336 316 288 219 145 156 132 124 144 141 117 117 108 134 178 184 173 160 155 104 97 103 109 131 150 135 143 154 159 159 156 154 155 152 151 151 152 152 152 159 159 159 164 164 162 166 171 172 170 169 171 174 177 181 184 189 193 191 191 192 196 197 198 201 203 210 211 207 208 211 208 198 187 180 177 177 179 179 176 174 173 169 174 182 187 197 199 202 202 196 177 153 139 134 139 138 133
323 292 271 200 168 168 158 153 146 129 114 114 108 157 174 158 178 173 171 98 113 131 121 131 148 86 133 153 147 153 152 152 155 152 151 152 155 154 151 160 162 163 167 170 172 170 173 176 175 172 172 176 179 183 184 190 194 194 195 193 198 199 196 199 199 205 207 206 210 213 211 198 185 183 179 179 181 180 181 179 177 174 183 195 197 210 212 208 206 195 175 155 143 138 142 138 130
285 270 258 196 175 154 125 121 119 112 113 106 107 172 165 134 159 161 163 150 127 137 123 119 129 85 95 125 137 146 148 150 152 152 152 153 156 156 156 161 164 171 173 176 182 178 178 182 181 178 176 179 179 182 186 189 194 199 200 197 201 198 195 198 199 202 201 206 210 208 207 193 181 181 177 177 178 183 192 186 183 185 195 211 211 215 218 211 204 192 174 158 145 141 142 138 131
264 259 251 226 85 81 30 71 93 113 110 96 101 147 161 138 150 160 164 150 132 133 125 120 119 100 104 124 137 144 147 150 154 156 156 156 158 159 163 166 166 173 175 179 186 183 183 187 189 185 180 184 182 182 187 189 191 199 203 202 203 199 196 200 204 207 205 208 208 201 195 186 176 179 177 175 180 190 199 197 196 199 208 223 219 213 217 209 196 185 173 155 143 143 143 137 130
278 293 250 45 37 69 65 66 81 79 81 83 107 126 151 141 146 168 166 138 140 140 133 135 127 118 121 133 142 147 150 153 157 161 161 162 162 162 165 170 170 171 174 177 181 183 186 189 193 188 182 187 184 182 191 193 190 195 202 203 202 201 199 200 204 209 208 206 203 195 188 186 183 182 180 176 187 196 200 204 202 205 214 226 221 210 214 203 185 177 170 153 146 144 140 136 133
317 291 281 62 22 71 109 87 75 66 63 61 93 113 133 136 149 173 162 133 149 147 138 149 142 135 138 143 148 151 154 157 162 165 166 166 165 165 166 170 174 174 172 171 173 180 186 187 189 188 185 187 186 185 193 195 190 193 198 199 201 201 201 203 204 205 203 201 198 193 190 190 187 185 184 182 191 201 203 202 196 199 208 226 218 197 204 193 173 170 161 150 147 143 138 139 146
337 295 349 43 355 108 118 105 78 68 54 37 79 137 130 128 177 177 153 133 135 113 130 153 150 146 148 150 154 156 158 161 165 168 169 169 168 168 168 171 174 174 176 177 175 176 182 184 185 186 184 186 189 187 189 190 188 192 191 192 198 197 199 203 202 199 199 200 194 190 191 189 184 186 185 183 188 194 198 194 187 187 185 212 202 171 193 189 167 163 155 149 146 141 142 152 163
263 51 7 6 316 111 126 123 92 76 51 33 105 152 96 128 212 193 171 131 73 70 105 137 148 152 155 156 158 160 163 165 167 171 172 172 172 170 170 170 170 171 177 182 181 179 179 181 184 186 184 186 189 187 187 186 187 193 190 191 198 197 196 196 194 195 198 197 187 182 187 184 182 185 181 180 184 185 191 188 182 183 182 197 191 175 195 186 164 161 156 153 147 141 153 165 168
253 94 32 2 348 75 136 147 154 132 34 28 48 340 307 225 209 197 204 163 66 62 96 127 142 153 157 158 161 164 166 168 170 172 173 175 175 175 174 172 173 174 177 181 183 183 181 182 184 185 187 187 187 186 188 190 188 191 197 199 197 196 196 190 186 189 192 188 177 177 181 179 182 183 179 182 184 181 185 184 183 188 186 193 191 181 188 178 164 161 159 155 149 144 157 165 163
279 18 41 89 102 75 140 156 165 179 348 19 348 295 258 234 204 187 210 185 94 85 106 128 139 148 156 160 164 167 168 170 171 172 173 176 177 177 177 176 177 179 180 181 182 185 186 187 185 184 190 189 186 185 187 195 191 187 201 205 197 197 196 188 185 186 187 183 179 181 176 176 181 179 179 182 183 183 179 178 179 181 185 194 191 178 174 172 160 158 157 152 152 147 146 158 149
282 11 81 130 110 86 131 154 160 193 286 337 293 251 182 236 222 198 207 178 137 122 120 134 140 146 156 162 166 168 169 171 171 172 173 175 176 176 177 178 179 181 183 184 185 187 191 193 188 187 192 191 190 188 186 194 195 191 199 202 201 200 190 186 191 187 185 184 183 185 177 177 178 175 179 178 181 182 175 173 173 179 189 186 177 169 170 165 151 153 153 144 151 149 137 165 154
26 38 126 150 130 106 126 145 157 211 245 273 267 213 163 215 229 210 205 180 150 141 137 141 144 150 158 163 167 169 170 172 172 172 173 174 176 176 178 179 180 182 183 185 186 188 194 197 192 191 193 191 192 193 191 193 195 195 196 197 203 199 187 190 193 187 186 185 186 188 183 178 173 173 179 179 178 176 173 172 173 181 184 174 162 166 170 159 147 149 148 143 152 151 139 169 152
33 64 132 151 150 141 158 155 165 232 219 245 263 227 174 188 230 209 172 173 163 153 150 150 150 154 160 164 168 171 172 174 173 173 173 174 177 179 181 181 182 182 181 183 185 187 192 196 194 194 195 193 193 193 193 195 194 196 197 197 200 197 192 193 190 187 187 185 186 187 184 177 171 173 175 176 175 173 172 173 179 176 168 172 166 163 169 160 151 148 152 157 159 155 143 145 123
38 85 141 154 167 176 188 185 175 235 201 218 273 257 219 199 233 194 149 165 169 164 159 157 158 157 162 166 168 173 175 175 175 176 177 176 179 182 183 182 182 182 181 183 185 186 189 191 193 195 196 193 192 193 193 194 194 195 196 196 196 196 196 192 188 187 184 184 188 186 179 172 169 174 176 176 174 171 173 173 177 170 160 176 170 161 166 158 151 151 161 164 160 150 133 118 77
68 149 212 163 180 181 180 192 180 200 180 139 277 256 221 205 218 181 154 167 169 169 165 162 163 161 165 168 170 175 177 177 178 180 181 181 181 183 184 183 181 181 181 184 184 186 186 186 190 194 194 192 189 190 191 191 192 193 193 193 194 197 195 189 186 183 182 183 183 182 176 171 168 172 179 178 173 170 171 170 168 168 169 174 170 161 156 151 148 149 159 161 153 140 122 115 77
162 200 289 207 183 159 167 188 174 196 189 149 252 261 207 191 199 176 162 170 170 172 171 168 166 166 170 170 173 177 178 181 182 184 184 183 184 183 184 182 182 180 179 182 184 184 183 184 188 191 193 191 188 187 188 188 189 192 191 193 193 194 190 184 182 182 184 182 179 180 176 174 172 173 177 173 170 166 166 168 162 168 176 171 163 155 146 149 153 150 153 155 147 139 134 140 88
201 206 274 247 150 110 158 192 176 189 168 159 230 266 303 192 184 170 170 174 174 178 175 172 170 169 175 175 177 179 181 185 186 186 185 184 185 183 183 182 181 181 179 180 183 182 182 184 187 190 193 192 188 186 185 185 186 190 192 194 192 188 185 181 183 184 184 182 182 183 180 178 177 175 173 167 167 161 156 168 164 170 174 162 159 157 153 157 157 152 151 151 152 148 146 149 87
230 254 195 164 19 112 146 181 201 219 170 174 224 261 203 188 174 171 176 179 179 182 177 175 175 173 177 180 181 182 182 186 188 187 186 186 185 184 183 182 182 182 181 179 182 182 182 187 189 191 194 191 190 188 185 183 186 191 193 194 191 188 187 183 184 184 185 186 184 187 185 181 177 175 171 167 167 159 155 168 168 176 170 157 162 165 161 159 157 159 156 148 151 151 142 133 86
189 263 44 80 306 122 141 168 207 227 221 205 225 261 279 141 161 176 177 182 186 185 181 179 179 177 179 183 184 184 184 186 189 188 187 186 186 185 183 183 184 183 183 181 182 182 182 190 190 189 194 194 195 194 188 185 189 194 195 196 193 188 187 188 187 185 186 188 186 188 186 181 177 176 173 171 168 161 162 167 166 177 169 161 168 165 162 163 160 166 163 151 144 137 136 96 55
151 209 247 141 269 332 140 173 200 211 215 227 223 242 277 228 159 176 178 187 193 188 186 184 182 180 180 184 186 186 186 188 190 189 187 186 185 185 183 184 185 184 185 183 184 185 183 190 190 186 192 195 199 200 194 190 192 194 197 198 198 193 187 189 193 191 189 186 189 189 184 182 181 178 176 174 171 167 168 169 171 178 174 171 171 166 168 168 164 167 167 164 156 144 140 79 48
20 324 296 289 276 314 72 106 179 205 216 234 233 235 259 249 178 180 182 188 197 194 192 189 186 183 181 185 188 188 189 191 191 189 186 185 184 184 184 184 184 185 186 185 186 185 185 190 191 190 191 193 202 205 198 195 194 196 197 197 200 198 191 193 195 195 191 184 191 193 186 185 184 180 178 177 174 169 169 175 178 181 178 174 172 173 175 171 172 170 166 175 170 162 165 127 63
322 324 311 318 308 303 40 57 161 222 243 240 242 246 256 247 201 193 187 187 197 200 196 193 191 187 184 186 189 189 191 191 188 187 186 185 185 185 186 186 186 187 186 187 188 187 188 190 194 199 196 194 201 203 198 197 197 198 198 197 202 201 196 198 199 197 192 187 193 195 190 189 185 182 181 180 178 172 171 179 182 181 179 177 176 179 179 180 186 179 177 189 170 173 199 192 272
303 303 289 292 291 297 52 76 161 209 262 263 250 251 261 264 230 202 192 189 195 200 199 197 195 193 190 189 189 189 192 191 186 185 187 187 188 187 188 189 189 190 190 191 192 191 193 193 198 206 203 200 201 200 197 195 196 200 198 197 201 201 200 201 200 200 196 193 197 194 190 191 187 186 185 182 182 179 176 179 181 181 178 180 180 179 181 189 195 191 199 210 196 203 219 229 264
278 281 284 283 281 297 59 89 147 181 252 290 280 265 262 263 250 212 197 195 197 199 201 200 198 197 196 194 192 191 191 190 186 186 189 190 191 190 190 192 193 194 195 196 195 195 197 197 203 209 207 207 208 206 204 198 198 203 201 199 199 200 205 203 200 203 199 200 203 196 191 194 190 189 189 187 186 183 181 179 181 182 177 180 186 187 193 201 203 200 207 219 218 224 231 247 268
271 269 273 274 290 309 96 123 150 170 221 289 295 286 276 264 253 223 199 201 203 201 202 201 200 200 199 198 195 194 191 189 189 190 191 192 193 193 194 196 198 197 198 200 199 200 202 202 207 212 211 212 213 214 214 208 207 207 203 202 199 199 208 206 202 205 203 204 210 203 198 199 195 191 192 192 189 187 188 184 182 185 183 185 191 196 203 210 214 211 215 225 224 233 242 249 258
257 256 260 263 294 310 336 130 153 182 219 276 295 289 287 271 246 228 206 205 207 204 205 204 202 203 203 202 199 196 194 192 193 192 192 193 194 195 197 199 200 200 200 201 202 202 205 209 213 214 214 215 215 217 218 216 215 214 209 207 201 196 202 204 204 209 208 206 210 210 207 204 199 195 196 196 194 198 198 189 184 190 193 194 196 202 209 214 221 222 225 231 230 240 247 245 248
243 243 253 272 296 308 315 342 232 228 221 239 273 270 273 251 221 218 202 202 207 206 206 208 207 206 206 207 204 199 198 197 196 195 194 194 194 197 199 200 200 201 202 202 203 203 205 212 217 215 214 216 217 219 218 217 219 216 210 210 207 202 203 206 207 209 211 209 209 211 211 209 203 198 200 200 200 207 205 198 196 195 198 201 200 208 217 219 224 227 229 234 238 246 250 252 256
246 236 251 284 300 307 308 301 286 265 212 188 258 264 158 159 193 194 179 192 205 203 205 209 209 208 208 209 207 204 204 201 199 199 197 196 196 198 200 201 201 202 204 204 203 205 206 211 218 216 213 216 218 220 219 218 222 219 210 208 208 207 208 209 208 207 209 210 209 208 210 211 206 202 205 205 205 212 210 208 210 203 201 207 205 208 217 222 225 229 235 240 243 248 249 252 256
244 186 292 293 298 301 302 294 274 282 266 139 250 280 300 172 173 159 171 195 204 201 207 211 208 209 208 208 207 205 205 203 203 203 201 199 198 199 200 201 203 203 204 203 202 207 209 213 219 217 214 215 218 220 219 218 222 223 217 210 209 210 209 210 209 205 207 210 208 206 208 212 210 206 208 212 214 219 216 213 216 212 206 211 213 213 216 222 227 230 235 237 236 240 243 246 253
241 82 340 290 300 302 299 289 265 276 294 184 217 258 281 256 151 145 175 203 208 205 210 212 209 209 207 207 207 205 204 203 203 204 204 203 200 201 202 202 204 204 203 202 201 205 212 218 221 219 215 215 218 220 220 218 220 224 221 213 211 212 210 212 214 208 206 210 208 205 207 212 215 211 211 218 222 225 223 218 218 218 213 212 217 219 220 223 227 230 232 232 232 236 241 243 249
250 50 312 292 300 299 293 278 255 255 263 225 197 227 262 259 143 145 169 202 222 218 215 213 211 210 207 206 206 205 204 203 202 203 203 205 204 203 205 204 204 203 201 202 202 203 211 219 221 220 218 216 218 221 220 219 221 224 224 216 213 214 210 211 217 212 208 210 209 208 207 208 217 218 216 221 224 226 227 223 221 222 219 217 218 222 225 226 226 230 235 236 236 238 240 241 243
255 242 265 260 267 287 285 264 244 237 250 244 198 228 262 274 162 159 181 210 234 225 218 215 212 210 208 205 205 205 204 203 204 203 202 203 205 205 206 206 204 203 202 202 203 201 206 217 222 221 218 217 219 221 221 221 222 223 224 220 217 218 213 208 215 215 213 216 215 212 212 209 212 220 221 223 225 226 228 228 225 225 224 222 222 223 225 228 227 231 238 237 234 233 233 236 240
230 228 240 233 229 268 275 248 234 238 237 234 265 258 267 274 211 146 158 186 251 229 202 205 208 209 209 206 204 203 202 203 203 203 202 202 204 205 206 206 205 203 203 201 202 201 203 214 222 221 219 218 219 219 219 221 222 222 223 222 220 222 220 216 219 220 219 222 219 214 217 216 213 216 221 226 229 228 229 230 227 225 224 223 225 224 224 228 230 233 238 237 235 232 228 232 236
217 235 242 236 224 234 245 226 227 249 241 159 206 259 259 258 250 54 68 164 240 244 195 178 197 201 205 207 206 202 200 200 201 202 202 201 203 205 205 206 205 203 202 200 201 203 203 209 220 222 220 219 218 217 218 220 222 222 222 221 221 224 225 223 225 227 225 226 222 215 216 218 217 218 221 226 230 229 230 231 229 224 222 222 224 225 224 225 229 230 231 230 234 235 231 231 234
214 227 232 239 236 228 239 231 230 249 238 152 244 251 255 258 259 279 305 292 258 263 259 253 230 202 198 204 206 203 200 198 198 200 201 200 201 203 203 204 202 200 201 201 202 203 202 208 220 224 221 220 219 218 219 222 224 226 226 224 222 223 226 226 227 229 228 227 224 217 217 219 220 221 222 225 230 230 229 231 229 223 220 221 222 223 222 220 221 223 226 226 226 233 234 232 233
209 220 222 232 237 235 243 235 233 244 222 152 268 242 248 253 243 254 306 346 3 297 287 280 256 216 192 195 202 201 198 197 197 197 199 199 198 199 200 199 199 202 203 205 204 200 201 212 223 225 223 222 222 222 223 224 226 229 232 233 230 228 230 231 230 229 228 228 225 220 220 222 224 225 225 227 232 232 229 232 230 223 221 223 224 225 225 224 223 220 223 227 225 229 233 232 235
208 222 228 234 242 246 255 247 247 258 221 159 190 225 254 259 205 252 298 316 259 237 270 256 190 191 180 180 192 197 196 196 195 195 197 198 196 196 197 196 201 207 206 204 201 199 208 222 226 224 224 225 224 227 228 227 228 230 233 235 236 236 237 236 234 230 225 225 226 224 224 225 227 229 228 228 231 232 227 228 228 222 222 225 225 228 230 231 233 229 226 230 228 228 234 235 237
202 213 228 234 240 245 261 267 275 288 273 225 213 233 270 277 277 272 268 269 252 236 242 204 170 173 177 174 182 189 193 193 193 193 194 196 196 195 195 199 205 208 205 201 201 207 221 231 231 225 224 225 227 229 231 230 230 231 233 233 235 237 239 238 238 238 233 228 227 228 229 230 229 229 230 229 231 231 226 223 224 221 222 226 227 229 229 228 235 237 235 236 232 228 237 240 239
185 206 224 223 243 261 262 260 261 270 267 247 221 242 254 246 251 265 268 269 241 197 197 178 154 162 172 172 178 183 187 189 190 191 192 193 195 195 197 203 204 202 203 208 215 222 230 233 228 223 219 221 227 228 228 229 229 230 233 233 232 233 235 235 237 241 239 232 230 228 228 231 233 232 233 232 232 231 225 221 222 222 225 229 229 231 229 224 230 235 235 238 237 231 235 242 241
212 216 225 206 219 257 263 261 243 242 254 245 231 255 257 237 210 200 244 263 197 152 163 148 141 155 165 164 171 177 182 186 186 189 190 190 193 195 198 203 204 203 208 219 227 228 229 228 225 222 219 221 229 231 227 226 226 227 229 231 233 233 232 232 231 232 231 230 232 232 229 229 233 234 233 233 232 231 228 225 222 222 225 229 228 228 229 227 228 232 230 233 239 236 235 240 244
236 258 243 212 220 231 228 245 253 250 257 251 238 253 264 257 233 208 234 280 84 139 147 146 150 156 156 151 157 166 174 180 182 186 187 188 193 196 198 202 202 204 212 224 229 224 225 230 227 221 221 223 228 231 230 229 230 229 229 230 233 236 235 232 229 227 227 227 229 230 229 231 234 232 230 232 232 229 229 229 227 225 225 228 229 227 228 228 229 231 231 231 238 242 241 243 244
231 255 239 221 235 246 227 232 250 257 261 259 248 246 252 242 235 246 267 336 350 152 147 152 157 148 141 138 144 156 166 172 178 182 184 189 195 199 203 206 202 204 215 222 224 223 228 236 230 221 224 227 228 228 229 230 232 234 234 231 229 231 235 236 233 229 227 229 232 231 230 231 232 229 226 229 233 232 230 229 229 229 228 228 231 229 229 230 230 232 232 232 236 240 243 247 246
205 218 222 217 215 243 254 245 245 257 264 263 261 255 249 145 143 289 311 20 340 164 146 152 150 133 123 122 127 143 157 165 171 176 180 187 194 197 203 206 201 205 215 218 221 227 233 238 233 226 226 227 229 232 233 230 225 227 232 232 230 228 229 232 234 232 228 227 227 228 232 230 227 227 226 224 228 233 233 231 230 229 228 228 229 228 229 229 231 233 232 231 233 234 237 244 246
211 212 218 221 219 226 242 242 233 242 258 256 264 267 258 107 152 278 20 92 91 123 140 144 136 122 115 114 116 126 142 156 163 169 175 180 187 191 194 197 198 204 213 217 222 230 236 237 235 233 229 226 230 237 240 233 223 219 221 225 227 225 223 223 224 224 228 231 228 224 232 236 232 232 233 228 229 235 235 233 234 231 229 229 229 229 229 229 230 233 233 232 233 236 239 242 245